Volver al catálogo

COSMOS 2251 DEB

ActivoLEO
NORAD 34454·DEBRIS·🇷🇺 Russia

Lanzado Jun 16, 1993 desde Plesetsk Cosmodrome

Loading…

Próximos Pases (próximas 24 horas)

TLE

ActualizadoSource: Space-Track

Época: Sep 14, 2026, 15:18 UTC

1 34454U 93036SX  26257.63759282  .00000343  00000-0  11831-3 0  9992
2 34454  74.0577 129.3740 0034547 126.2029 234.2329 14.39132768920362

Sigue COSMOS 2251 DEB en tiempo real con AllMySat

Download on the App Store